Jackson, MI

12:54 AM EDT on May 01, 2017 (GMT -0400)
Jackson County-Reynolds

Weather History for KJXN - November, 2012

Change the Weather History Date:

Monday, November 5, 2012

  Actual Average Record
Temperature  
Mean Temperature 31 °F 44 °F  
Max Temperature 43 °F 53 °F 77 °F (1978)
Min Temperature 18 °F 35 °F 17 °F (1991)
Degree Days  
Heating Degree Days 34 21  
Month to date heating degree days 150 102  
Since 1 July heating degree days 798 750  
Cooling Degree Days 0 0  
Month to date cooling degree days 0 0  
Year to date cooling degree days 873 592  
Moisture  
Dew Point 21 °F    
Average Humidity 71    
Maximum Humidity 91    
Minimum Humidity 51    
Precipitation  
Precipitation 0.00 in 0.09 in 1.64 in (1990)
Month to date precipitation T 0.44  
Year to date precipitation 22.87 27.47  
Sea Level Pressure  
Sea Level Pressure 30.21 in    
Wind  
Wind Speed 1 mph (ENE)    
Max Wind Speed 9 mph    
Max Gust Speed 14 mph    
Visibility 10 miles    
Events      
T = Trace of Precipitation, MM = Missing Value Source: NWS Daily Summary

Daily Weather History Graph

Daily Weather History Graph

Search for Another Location

Airport or City:

Trip Planner

Search our weather history database for the weather conditions in past years. The results will help you decide how hot, cold, wet, or windy it might be!

Date:

Astronomy

Nov. 05, 2012 Rise Set
Actual Time 7:16 AM EST 5:25 PM EST
Civil Twilight 6:47 AM EST 5:55 PM EST
Nautical Twilight 6:13 AM EST 6:28 PM EST
Astronomical Twilight 5:40 AM EST 7:01 PM EST
Moon 11:02 PM EST (11/5) 12:35 PM EST (11/5)
Length of Visible Light 11h 08m
Length of Day
10h 09m
Waning Gibbous, 63% of the Moon is Illuminated
Nov 5
Waning Gibbous
Nov 6
Last Quarter
Nov 13
New
Nov 20
First Quarter
Nov 28
Full

Hourly Weather History & Observations

Time (EST) Temp. Windchill Dew Point Humidity Pressure Visibility Wind Dir Wind Speed Gust Speed Precip Events Conditions
12:56 AM 21.9 °F - 18.0 °F 85% 30.20 in 8.0 mi Calm Calm - N/A   Clear
1:56 AM 21.0 °F - 17.1 °F 85% 30.21 in 10.0 mi Calm Calm - N/A   Clear
2:56 AM 21.0 °F - 17.1 °F 85% 30.22 in 10.0 mi Calm Calm - N/A   Clear
3:56 AM 19.9 °F - 16.0 °F 85% 30.21 in 9.0 mi Calm Calm - N/A   Clear
4:56 AM 19.9 °F - 16.0 °F 85% 30.22 in 9.0 mi Calm Calm - N/A   Clear
5:56 AM 19.9 °F - 16.0 °F 85% 30.23 in 9.0 mi Calm Calm - N/A   Clear
6:56 AM 19.9 °F - 15.1 °F 81% 30.23 in 8.0 mi Calm Calm - N/A   Clear
7:56 AM 19.9 °F - 17.1 °F 89% 30.24 in 7.0 mi Calm Calm - N/A   Clear
8:56 AM 28.0 °F - 25.0 °F 88% 30.25 in 7.0 mi Calm Calm - N/A   Clear
9:56 AM 35.1 °F 32.2 °F 27.0 °F 72% 30.24 in 10.0 mi ENE 3.5 mph - N/A   Clear
10:56 AM 37.9 °F 35.5 °F 25.0 °F 60% 30.25 in 10.0 mi Variable 3.5 mph - N/A   Mostly Cloudy
11:56 AM 37.0 °F 33.3 °F 25.0 °F 62% 30.23 in 10.0 mi ESE 4.6 mph - N/A   Overcast
12:56 PM 37.9 °F 35.5 °F 24.1 °F 57% 30.22 in 10.0 mi ESE 3.5 mph - N/A   Mostly Cloudy
1:56 PM 39.9 °F - 24.1 °F 53% 30.20 in 10.0 mi Calm Calm - N/A   Scattered Clouds
2:56 PM 39.9 °F - 24.1 °F 53% 30.19 in 10.0 mi Calm Calm - N/A   Clear
3:56 PM 41.0 °F 37.1 °F 24.1 °F 51% 30.18 in 10.0 mi NNE 5.8 mph - N/A   Partly Cloudy
4:56 PM 39.0 °F 36.8 °F 24.1 °F 55% 30.18 in 10.0 mi North 3.5 mph - N/A   Clear
5:56 PM 34.0 °F - 24.1 °F 67% 30.20 in 10.0 mi Calm Calm - N/A   Clear
6:56 PM 32.0 °F - 23.0 °F 69% 30.20 in 10.0 mi Calm Calm - N/A   Clear
7:56 PM 32.0 °F - 23.0 °F 69% 30.20 in 10.0 mi Calm Calm - N/A   Clear
8:56 PM 30.9 °F 27.5 °F 23.0 °F 72% 30.20 in 10.0 mi ENE 3.5 mph - N/A   Clear
9:56 PM 28.9 °F - 23.0 °F 78% 30.20 in 10.0 mi Calm Calm - N/A   Clear
10:56 PM 27.0 °F - 21.9 °F 81% 30.19 in 10.0 mi Calm Calm - N/A   Clear
11:56 PM 26.1 °F - 21.9 °F 84% 30.17 in 10.0 mi Calm Calm - N/A   Clear